Weather Data

Pearl Creek Farm: 8878 N Farm Road 75, Walnut Grove MO 65770

<== Previous Day (Sunday 13 Jan 2013) | Next Day (Tuesday 15 Jan 2013) ==>

Summary Precipitation Data For Monday 14 January 2013

ElementValueUnits
Precipitation0"
New Snow Depth0"
New Snow Water Equivalent0"
Total Snow Depth0.5"
Total Snow Water Equivalent*0"
NotesVery cold (15oF). Sun melted some ice away last night even though it never got above freezing. Still ice on the ground, but it remains difficult to measure.
SourcePearl Creek Farm

* Total Snow Water Equivalent is not measured every day.

Summary Temperature Data For Monday 14 January 2013

ElementValueUnits
High Temperature28 oF
Low Temperature13 oF
Average Temperature20 oF
High Humidity88 %
Low Humidity79 %
Average Humidity84 %
SourcePearl Creek Farm

Detail Temperature Data For Monday 14 January 2013

Date / TimeTemp (F)RH (%)Dew Pt (F)Report Date / TimeSource
2013-01-14 00:00:00 16 86 12.6 2013-01-27 10:51:56 Pearl Creek Farm
2013-01-14 00:30:00 15 86 11.6 2013-01-27 10:51:56 Pearl Creek Farm
2013-01-14 01:00:00 15 86 11.6 2013-01-27 10:51:56 Pearl Creek Farm
2013-01-14 01:30:00 15 86 11.6 2013-01-27 10:51:56 Pearl Creek Farm
2013-01-14 02:00:00 14 86 10.5 2013-01-27 10:51:56 Pearl Creek Farm
2013-01-14 02:30:00 14 86 10.5 2013-01-27 10:51:56 Pearl Creek Farm
2013-01-14 03:00:00 14 86 10.5 2013-01-27 10:51:56 Pearl Creek Farm
2013-01-14 03:30:00 14 86 10.5 2013-01-27 10:51:56 Pearl Creek Farm
2013-01-14 04:00:00 14 86 10.6 2013-01-27 10:51:56 Pearl Creek Farm
2013-01-14 04:30:00 14 85 10.3 2013-01-27 10:51:56 Pearl Creek Farm
2013-01-14 05:00:00 13 85 9.2 2013-01-27 10:51:56 Pearl Creek Farm
2013-01-14 05:30:00 13 86 9.5 2013-01-27 10:51:56 Pearl Creek Farm
2013-01-14 06:00:00 13 86 9.5 2013-01-27 10:51:56 Pearl Creek Farm
2013-01-14 06:30:00 14 87 10.7 2013-01-27 10:51:56 Pearl Creek Farm
2013-01-14 07:00:00 15 87 11.7 2013-01-27 10:51:56 Pearl Creek Farm
2013-01-14 07:30:00 15 88 12.0 2013-01-27 10:51:56 Pearl Creek Farm
2013-01-14 08:00:00 17 87 13.8 2013-01-27 10:51:56 Pearl Creek Farm
2013-01-14 08:30:00 18 87 14.8 2013-01-27 10:51:56 Pearl Creek Farm
2013-01-14 09:00:00 18 86 14.5 2013-01-27 10:51:56 Pearl Creek Farm
2013-01-14 09:30:00 20 87 16.6 2013-01-27 10:51:56 Pearl Creek Farm
2013-01-14 10:00:00 21 84 16.9 2013-01-27 10:51:56 Pearl Creek Farm
2013-01-14 10:30:00 22 82 17.2 2013-01-27 10:51:56 Pearl Creek Farm
2013-01-14 11:00:00 23 81 18.1 2013-01-27 10:51:56 Pearl Creek Farm
2013-01-14 11:30:00 24 81 18.9 2013-01-27 10:51:56 Pearl Creek Farm
2013-01-14 12:00:00 24 81 19.0 2013-01-27 10:51:56 Pearl Creek Farm
2013-01-14 12:30:00 25 82 20.2 2013-01-27 10:51:56 Pearl Creek Farm
2013-01-14 13:00:00 25 81 19.9 2013-01-27 10:51:56 Pearl Creek Farm
2013-01-14 13:30:00 26 80 20.7 2013-01-27 10:51:56 Pearl Creek Farm
2013-01-14 14:00:00 27 81 22.0 2013-01-27 10:51:56 Pearl Creek Farm
2013-01-14 14:30:00 27 80 21.5 2013-01-27 10:51:56 Pearl Creek Farm
2013-01-14 15:00:00 27 79 21.2 2013-01-27 10:51:56 Pearl Creek Farm
2013-01-14 15:30:00 28 79 22.4 2013-01-27 10:51:56 Pearl Creek Farm
2013-01-14 16:00:00 28 80 22.5 2013-01-27 10:51:56 Pearl Creek Farm
2013-01-14 16:30:00 28 80 22.7 2013-01-27 10:51:56 Pearl Creek Farm
2013-01-14 17:00:00 27 80 21.7 2013-01-27 10:51:56 Pearl Creek Farm
2013-01-14 17:30:00 26 82 21.3 2013-01-27 10:51:56 Pearl Creek Farm
2013-01-14 18:00:00 25 85 21.1 2013-01-27 10:51:56 Pearl Creek Farm
2013-01-14 18:30:00 24 86 20.4 2013-01-27 10:51:56 Pearl Creek Farm
2013-01-14 19:00:00 22 87 18.6 2013-01-27 10:51:56 Pearl Creek Farm
2013-01-14 19:30:00 22 87 18.6 2013-01-27 10:51:56 Pearl Creek Farm
2013-01-14 20:00:00 21 86 17.5 2013-01-27 10:51:56 Pearl Creek Farm
2013-01-14 20:30:00 20 87 16.6 2013-01-27 10:51:56 Pearl Creek Farm
2013-01-14 21:00:00 20 87 16.6 2013-01-27 10:51:56 Pearl Creek Farm
2013-01-14 21:30:00 19 86 15.5 2013-01-27 10:51:56 Pearl Creek Farm
2013-01-14 22:00:00 18 86 14.5 2013-01-27 10:51:56 Pearl Creek Farm
2013-01-14 22:30:00 18 86 14.5 2013-01-27 10:51:56 Pearl Creek Farm
2013-01-14 23:00:00 17 86 13.4 2013-01-27 10:51:56 Pearl Creek Farm
2013-01-14 23:30:00 17 86 13.4 2013-01-27 10:51:56 Pearl Creek Farm

A total of 48 rows are displayed.